Find Starlink 31496

NORAD ID: 59211 Int'l Des: 2024-046 Owner: SPXS Country: US Constellation: starlink operational
LEOCIRCULAR

当前视图

正在加载3D地球...

About Starlink 31496

Starlink 31496 (NORAD 59211) is a starlink constellation satellite (v2 mini) launched Mar 11, 2024 by SPXS of US. It operates in LEO, CIRCULAR orbit with a mass of 730.00 kg.

关于 Starlink 31496

正在加载描述...

即将过境

Passes for default location (London). Set your location on the main map for personalized predictions.

高度历史

Loading altitude history...

两行轨道根数

1 59211U 24046L 26171.33528684 .00000159 00000-0 17504-4 0 9996
2 59211 53.1610 25.8803 0001654 85.8706 274.2484 15.30199327128936
Epoch: Jun 20, 2026 • Age: 15 hours

当前状态

高度 477.4 km
速度 7.63 km/s
星下点 37.37°N, 81.66°W
发射日期 Mar 11, 2024
运行时间 2.2 years
类型 internet

技术详情

分类 Payload
质量 730.00 kg
干质量 700.00 kg
总质量 730.00 kg
长度 0.30 m
直径 4.10 m
跨度 29.00 m
形状 Box + pan
制造商 SPXS
平台类型 Starlink V2M
阶段状态 In Orbit
所有者/国家 SPXS/US

Most Searched